Location: Peebles
(55.6412°N, 3.1714°W)
Time: 10:35:19
(UTC+00:00)

deb Kosmos-1275 - Pass Details

Date: 03 December 2022
Orbit: 808 x 888 km, 83.0° (Epoch: 01 February)

Event Time Altitude Azimuth Distance (km) Brightness Sun altitude
Rises 06:16:02 0° 351° (N) 3,446 ? -16.2°
Reaches altitude 10° 06:18:46 10° 1° (N) 2,492 ? -15.9°
Maximum altitude 06:23:47 32° 64° (ENE) 1,413 ? -15.2°
Drops below altitude 10° 06:28:40 10° 127° (SE) 2,430 ? -14.5°
Sets 06:31:17 0° 137° (SE) 3,348 ? -14.2°
